{"data":{"norad_id":63760,"epoch":"2026-05-24T19:48:19.302624Z","epoch_age_seconds":100671,"freshness":"FRESH","line1":"1 63760U 25089K   26144.82522341  .00190155  00000+0  14491-2 0  9991","line2":"2 63760  42.9986 192.9664 0001092 298.1757  61.9000 15.70883249 62113","mean_motion":15.70883249,"eccentricity":0.0001092,"inclination_deg":42.9986,"raan_deg":192.9664,"arg_perigee_deg":298.1757,"mean_anomaly_deg":61.9,"bstar":0.0014491,"rev_number":6211,"period_min":91.668174634664,"perigee_km":355.63604234565,"apogee_km":357.10685899127,"semimajor_km":6734.5084506685,"source":"CELESTRAK","updated_at":"2026-05-25T13:38:20.104915Z"}}